Regional Weather Roundup
Issued by NWS

Home | Current Version | Previous Version | Text Only | Print | Product List | Glossary Off
Versions: 1 2 3 4 5 6 7 8 9 10 11 12 13 14 15 16 17 18 19 20 21 22 23 24 25 26 27 28 29 30 31 32 33 34 35 36 37 38 39 40 41 42 43 44 45 46 47 48 49 50

000
ASUS43 KLMK 271310
RWRKY
KENTUCKY REGIONAL WEATHER ROUNDUP
NATIONAL WEATHER SERVICE LOUISVILLE KY
900 AM EDT SAT MAY 27 2017

NOTE "FAIR" INDICATES FEW OR NO CLOUDS BELOW 12,000 FEET
WITH NO SIGNIFICANT WEATHER AND/OR OBSTRUCTIONS TO VISIBILITY.

KYZ001>023-026-027-061>063-070>075-271400-
WESTERN AND SOUTH CENTRAL KENTUCKY

CITY           SKY/WX    TMP DP  RH WIND       PRES   REMARKS
PADUCAH        CLOUDY    73  69  87 CALM      29.85R
HENDERSON      CLOUDY    70  68  93 CALM      29.87F
OWENSBORO      PTSUNNY   72  68  87 SE3       29.89F
HOPKINSVILLE   CLOUDY    72  66  82 SW3       29.92S
BOWLING GREEN  CLOUDY    74  66  76 SW9       29.94R
GLASGOW        CLOUDY    72  64  76 SW3       29.94R
$$

KYZ024-025-028>034-038-045-046-053-271400-
NORTH CENTRAL KENTUCKY

CITY           SKY/WX    TMP DP  RH WIND       PRES   REMARKS
LOUISVILLE/SDF CLOUDY    75  69  81 W5        29.89R
LOUISVILLE/LOU CLOUDY    74  70  87 SW3       29.90R
FORT KNOX      CLOUDY    72  67  86 SW5       29.90S
$$

KYZ035>037-039>044-047>052-055>060-089>105-271400-
NORTHEAST KENTUCKY

CITY           SKY/WX    TMP DP  RH WIND       PRES   REMARKS
LEXINGTON      CLOUDY    72  62  71 SW8       29.93R
COVINGTON      PTSUNNY   72  67  84 W7        29.88R
FRANKFORT      CLOUDY    72  64  76 SW6       29.91R
$$

KYZ054-064>069-076>088-106>120-271400-
SOUTHEAST KENTUCKY

CITY           SKY/WX    TMP DP  RH WIND       PRES   REMARKS
JACKSON        CLOUDY    71  62  73 CALM      29.95R
LONDON         CLOUDY    72  60  66 SW8       29.97R
SOMERSET       CLOUDY    68  61  77 CALM      29.97R
MIDDLESBORO    CLOUDY    71  64  78 CALM      29.99R
MONTICELLO     CLOUDY    72  64  76 NW8       29.98R
$$




USA.gov is the U.S. government's official web portal to all federal, state and local government web resources and services.